Weather Roundup
Issued by NWS

Home | Current Version | Previous Version | Text Only | Print | Product List | Glossary On
Versions: 1 2 3 4 5 6 7 8 9 10 11 12 13 14 15 16 17 18 19 20 21 22 23 24 25 26 27 28 29 30 31 32 33 34 35 36 37 38 39 40 41 42 43 44 45 46 47 48 49 50
000
NZUS93 KARX 241559
HRRWXR

CURRENT HOURLY OBSERVATIONS ACROSS
MUCH OF THE UPPER MISSISSIPPI VALLEY
NATIONAL WEATHER SERVICE LA CROSSE WI
1100 AM CDT SUN MAY 24 2015


...SOUTHEAST MINNESOTA...


CITY           SKY/WX    TMP DP  RH WIND       PRES   REMARKS
ROCHESTER      LGT RAIN  58  55  90 SE15      30.06F FOG
ROCHESTER/MAYO CLOUDY    58  58  98 E13       30.05S
WINONA         LGT RAIN  59  55  88 SE9       30.07F
AUSTIN         LGT RAIN  59  55  88 SE15      30.01F
ALBERT LEA     LGT RAIN  57  57 100 E12       29.99F
DODGE CENTER   LGT RAIN  61  57  88 SE14      30.04S
PRESTON        LGT RAIN  57  55  91 SE9       30.06S
OWATONNA       LGT RAIN  61  55  82 SE14      30.01F
FARIBAULT      CLOUDY    63  57  82 E13       30.02S
$$

...ELSEWHERE IN MINNESOTA...


CITY           SKY/WX    TMP DP  RH WIND       PRES   REMARKS
MINNEAPOLIS    LGT RAIN  62  55  77 E9        30.03S
INTNL FALLS    SUNNY     74  44  34 CALM      30.06F
DULUTH         CLOUDY    68  44  42 E6        30.09F
RED WING       LGT RAIN  63  55  77 SE12      30.05R
REDWOOD FALLS  LGT RAIN  61  57  87 E7        29.97F FOG
MANKATO        CLOUDY    63  55  77 SE18      29.99F
WORTHINGTON    CLOUDY    59  54  82 E12       29.93F
FAIRMONT       CLOUDY    61  54  77 E14       29.95F
$$

...SOUTHWEST WISCONSIN...


CITY           SKY/WX    TMP DP  RH WIND       PRES   REMARKS
LA CROSSE      LGT RAIN  61  57  87 SE6       30.09F
PRAIRIE DU CHI LGT RAIN  59  56  90 E10       30.07F
BOSCOBEL       LGT RAIN  60  57  89 E7        30.10F FOG
LONE ROCK      NOT AVBL
PLATTEVILLE    CLOUDY    59  57  94 E10       30.10F
FORT MC COY    LGT RAIN  59  54  84 SE6       30.13F
CAMP DOUGLAS   CLOUDY    59  59 100 SE8       30.13F
VIROQUA        CLOUDY    57  57 100 E9        30.10F
WIS DELLS      LGT RAIN  58  55  88 SE3       30.14F
$$

...ELSEWHERE IN WISCONSIN...


CITY           SKY/WX    TMP DP  RH WIND       PRES   REMARKS
MILWAUKEE      CLOUDY    66  54  65 W3        30.18S
MADISON        LGT RAIN  61  56  83 SE6       30.16S
GREEN BAY      CLOUDY    72  51  47 S8        30.14S
EAU CLAIRE     NOT AVBL
BLACK RVR FLS  DRIZZLE   60  55  83 S3        30.12S
MEDFORD        CLOUDY    67  49  51 SE6       30.12S
WAUSAU         CLOUDY    70  48  45 S7        30.10F
WIS RAPIDS     LGT RAIN  61  53  75 SW9       30.16R
MARSHFIELD     LGT RAIN  64  51  62 S15G23    30.13R
RICE LAKE      CLOUDY    67  48  51 SE9       30.09S
$$

...NORTHEAST IOWA...


CITY           SKY/WX    TMP DP  RH WIND       PRES   REMARKS
DECORAH        CLOUDY    57  57 100 SE10G18   30.05S
MASON CITY     LGT RAIN  60  57  89 E18G29    29.97F
CHARLES CITY   CLOUDY    59  59 100 SE17      30.02S FOG
OELWEIN        LGT RAIN  57  57 100 E17G23    30.03F
$$

...ELSEWHERE IN IOWA...


CITY           SKY/WX    TMP DP  RH WIND       PRES   REMARKS
DES MOINES     CLOUDY    63  60  90 SE13      29.88F FOG
IOWA CITY      CLOUDY    61  59  93 E10       30.00F
FORT DODGE     CLOUDY    59  55  88 E17G24    29.90F
$$

...NORTHERN ILLINOIS...


CITY           SKY/WX    TMP DP  RH WIND       PRES   REMARKS
CHICAGO-OHARE  CLOUDY    69  53  56 E8        30.15S
CHICAGO-MIDWAY CLOUDY    72  54  53 E8        30.15F
MOLINE         RAIN      62  58  86 E14       30.02F FOG
ROCKFORD       LGT RAIN  65  56  72 E9        30.13F
PEORIA         CLOUDY    76  59  55 SE9       30.04F
$$

NOTE: "FAIR" INDICATES FEW OR NO CLOUDS BELOW 12,000 FEET WITH NO
SIGNIFICANT WEATHER AND/OR OBSTRUCTIONS TO VISIBILITY. WIND
SPEEDS ARE IN MILES-PER-HOUR.



USA.gov is the U.S. government's official web portal to all federal, state and local government web resources and services.